Austin Bergstrom, TX

5:23 AM CST on December 17, 2017 (GMT -0600)
Austin Bergstrom International

Weather History for KAUS - November, 2012

Change the Weather History Date:

Sunday, November 4, 2012

  Actual Average Record
Temperature  
Mean Temperature 69 °F 63 °F  
Max Temperature 82 °F 76 °F 89 °F (1988)
Min Temperature 55 °F 50 °F 26 °F (2011)
Degree Days  
Heating Degree Days 0 4  
Month to date heating degree days 0 16  
Since 1 July heating degree days 70 67  
Cooling Degree Days 4 2  
Month to date cooling degree days 19 9  
Year to date cooling degree days 3086 2712  
Growing Degree Days 18 (Base 50)    
Moisture  
Dew Point 59 °F    
Average Humidity 73    
Maximum Humidity 100    
Minimum Humidity 45    
Precipitation  
Precipitation 0.00 in 0.12 in 3.15 in (2002)
Month to date precipitation 0.00 0.48  
Year to date precipitation 34.30 29.97  
Snow  
Snow 0.00 in - - ()
Month to date snowfall 0.0  
Since 1 July snowfall 0.0  
Since 1 September snowfall 0.0  
Snow Depth 0.00 in    
Sea Level Pressure  
Sea Level Pressure 30.06 in    
Wind  
Wind Speed 3 mph (NNE)    
Max Wind Speed 13 mph    
Max Gust Speed 16 mph    
Visibility 10 miles    
Events Fog    
T = Trace of Precipitation, MM = Missing Value Source: NWS Daily Summary

Daily Weather History Graph

Daily Weather History Graph

Search for Another Location

Airport or City:

Trip Planner

Search our weather history database for the weather conditions in past years. The results will help you decide how hot, cold, wet, or windy it might be!

Date:

Astronomy

Nov. 04, 2012 Rise Set
Actual Time 6:47 AM CST 5:40 PM CST
Civil Twilight 6:22 AM CST 6:05 PM CST
Nautical Twilight 5:54 AM CST 6:33 PM CST
Astronomical Twilight 5:25 AM CST 7:02 PM CST
Moon 10:23 PM CST (11/4) 11:27 AM CST (11/4)
Length of Visible Light 11h 42m
Length of Day
10h 53m
Waning Gibbous, 72% of the Moon is Illuminated
Nov 4
Waning Gibbous
Nov 6
Last Quarter
Nov 13
New
Nov 20
First Quarter
Nov 28
Full

Hourly Weather History & Observations

Time (CST) Temp. Heat Index Dew Point Humidity Pressure Visibility Wind Dir Wind Speed Gust Speed Precip Events Conditions
12:53 AM 57.9 °F - 55.9 °F 93% 30.05 in 10.0 mi Calm Calm - N/A   Clear
1:53 AM 57.9 °F - 55.0 °F 90% 30.06 in 10.0 mi Calm Calm - N/A   Partly Cloudy
1:53 AM 57.0 °F - 55.9 °F 96% 30.07 in 10.0 mi Calm Calm - N/A   Partly Cloudy
2:24 AM 57.2 °F - 55.4 °F 94% 30.09 in 10.0 mi North 4.6 mph - N/A   Mostly Cloudy
2:53 AM 61.0 °F - 60.1 °F 97% 30.05 in 9.0 mi Calm Calm - N/A   Overcast
3:53 AM 62.1 °F - 61.0 °F 96% 30.05 in 10.0 mi Calm Calm - N/A   Overcast
4:53 AM 60.1 °F - 57.9 °F 93% 30.05 in 10.0 mi Calm Calm - N/A   Scattered Clouds
5:53 AM 59.0 °F - 57.9 °F 96% 30.06 in 8.0 mi Calm Calm - N/A   Scattered Clouds
6:53 AM 55.9 °F - 55.9 °F 100% 30.09 in 4.0 mi Calm Calm - N/A Fog Patches of Fog
7:53 AM 62.1 °F - 59.0 °F 90% 30.10 in 7.0 mi NNW 3.5 mph - N/A   Scattered Clouds
8:53 AM 66.9 °F - 61.0 °F 81% 30.12 in 10.0 mi NE 3.5 mph - N/A   Partly Cloudy
9:53 AM 69.1 °F - 61.0 °F 75% 30.12 in 10.0 mi Calm Calm - N/A   Partly Cloudy
10:53 AM 73.9 °F - 62.1 °F 66% 30.10 in 10.0 mi NNE 5.8 mph - N/A   Scattered Clouds
11:53 AM 79.0 °F - 61.0 °F 54% 30.08 in 10.0 mi NNW 5.8 mph - N/A   Scattered Clouds
12:53 PM 79.0 °F - 62.1 °F 56% 30.05 in 10.0 mi Variable 5.8 mph - N/A   Scattered Clouds
1:53 PM 80.1 °F 81.2 °F 62.1 °F 54% 30.03 in 10.0 mi NNE 9.2 mph - N/A   Scattered Clouds
2:53 PM 80.1 °F 80.9 °F 60.1 °F 50% 30.02 in 10.0 mi NE 8.1 mph - N/A   Partly Cloudy
3:53 PM 81.0 °F 81.1 °F 57.9 °F 45% 30.01 in 10.0 mi Variable 3.5 mph - N/A   Scattered Clouds
4:53 PM 79.0 °F - 57.9 °F 48% 30.02 in 10.0 mi NE 6.9 mph - N/A   Scattered Clouds
5:53 PM 75.0 °F - 57.9 °F 55% 30.03 in 10.0 mi ENE 4.6 mph - N/A   Scattered Clouds
6:53 PM 71.1 °F - 57.9 °F 63% 30.06 in 10.0 mi ENE 3.5 mph - N/A   Scattered Clouds
7:53 PM 64.9 °F - 57.0 °F 75% 30.06 in 10.0 mi Calm Calm - N/A   Clear
8:53 PM 60.1 °F - 57.0 °F 90% 30.08 in 10.0 mi Calm Calm - N/A   Clear
9:53 PM 57.9 °F - 55.9 °F 93% 30.08 in 10.0 mi WSW 5.8 mph - N/A   Clear
10:53 PM 57.9 °F - 55.9 °F 93% 30.07 in 10.0 mi Calm Calm - N/A   Clear